Starlink 36236

operational
NORAD ID: 67078 Int'l Des: 2025-298 Owner: SPXS Country: US Constellation: starlink
LEOCIRCULAR

Starlink 36236について

説明を読み込み中...

リアルタイム位置

3D地球を読み込み中...

次回通過

高度履歴

Altitude vs Time

uPlot chart will show altitude changes over time

軌道要素

1 67078C 25298D 25349.42131944 -.00897210 00000+0 -13720-2 0 3497
2 67078 70.0022 243.0166 0005592 274.7495 177.4960 16.05042604 15
Epoch: Dec 15, 2025 • Age: 59 hours

現在のステータス

高度 277.6 km
速度 7.74 km/s
衛星直下点 40.46°N, 1.27°W
打ち上げ日 Dec 14, 2025
運用期間 3 days
タイプ internet

技術仕様

分類 Payload
質量 575.00 kg
乾燥質量 530.00 kg
総質量 575.00 kg
長さ 0.30 m
直径 4.10 m
スパン 29.00 m
形状 Box + pan
製造者 SPXS
バスタイプ Starlink V2MO
フェーズステータス In Orbit
所有者/国 SPXS/US

大規模コンステレーション

Loading constellations...